Simultaneous Nadir Overpasses (SNOs) Predictions

Prediction of SNOs between AQUA and GOES-15 Satellite Orbit:

Table of predicted SNOs for the next 14.0 days since TLE Epoch: 2/12/2021
Index Date Time (AQUA) AQUA Lat,Lon GOES-15 Lat,Lon Distance(km) Time Diff (sec)
1 02/14/2021 10:07:09 -0.18,-127.93 -0.20,-127.82 12.73 80
2 02/16/2021 09:54:58 -0.81,-124.98 -0.19,-127.89 331.14 80
3 02/16/2021 22:16:22 -0.29,-130.17 0.19,-127.95 252.60 80
4 02/18/2021 22:04:11 0.35,-127.21 0.19,-128.01 90.85 80
5 02/19/2021 10:25:27 0.75,-132.37 -0.18,-127.99 497.61 80
6 02/20/2021 21:52:00 0.99,-124.26 0.18,-128.07 433.68 80
7 02/21/2021 10:13:16 0.11,-129.41 -0.18,-128.05 155.11 80
8 02/23/2021 10:01:05 -0.53,-126.46 -0.17,-128.10 186.70 80
9 02/23/2021 22:22:29 -0.56,-131.65 0.17,-128.14 398.43 80
10 02/25/2021 22:10:17 0.03,-128.68 0.16,-128.19 57.15 80
